Regional Weather Roundup
Issued by NWS San Diego, CA

Home | Current Version | Previous Version | Text Only | Print | Product List | Glossary On
Versions: 1 2 3 4 5 6 7 8 9 10 11 12 13 14 15 16 17 18 19 20 21 22 23 24 25 26 27 28 29 30 31 32 33 34 35 36 37 38 39 40 41 42 43 44 45 46 47 48 49 50
000
ASUS46 KSGX 022011
RWRSGX

SAN DIEGO HOURLY WEATHER ROUNDUP
NATIONAL WEATHER SERVICE SAN DIEGO CA
100 PM PDT SUN AUG 02 2015

NOTE: "FAIR" INDICATES FEW OR NO CLOUDS BELOW 12,000 FEET WITH NO
SIGNIFICANT WEATHER AND/OR OBSTRUCTIONS TO VISIBILITY.

CAZ042-043-060-061-PZZ750-775-022100-

GREATER SAN DIEGO AREA

CITY           SKY/WX    TMP DP  RH WIND       PRES   REMARKS
LINDBERGH FLD  CLOUDY    73  63  70 VRB6      29.93F
POINT LOMA       N/A     76  65  68 W7          N/A
NATIONAL CITY    N/A     74  67  79 NW3       29.92F
CHULA VISTA      N/A     74  67  79 W1        29.85F
IMPERIAL BEACH CLOUDY   N/A N/A N/A W9        29.92F
BROWN FIELD    MOSUNNY   75  65  70 NW6       29.92F
MIRAMAR MCAS   MOSUNNY   77  64  64 VRB5      29.92F
MONTGOMERY FLD PTSUNNY   74  64  71 SW7       29.92F

$$

NORTH SAN DIEGO COUNTY

CITY           SKY/WX    TMP DP  RH WIND       PRES   REMARKS
CAMP PENDLETON SUNNY     78  64  61 S9        29.90F
OCEANSIDE AP   CLOUDY    74  64  71 SW5       29.90F
VISTA            N/A     76  67  73 W6        29.89S
CARLSBAD       CLOUDY    73  65  75 W9        29.91F
DEL MAR          N/A     72  67  83 CALM      29.93F
FALLBROOK        N/A     81  67  61 SW7       29.90S
ESCONDIDO        N/A     82  69  63 W5        29.91F
POWAY            N/A     82  67  61 SW5       29.91F

$$

EAST SAN DIEGO COUNTY

CITY           SKY/WX    TMP DP  RH WIND       PRES   REMARKS
RAMONA         SUNNY     83  63  50 NW9       29.93F
SANTEE LAKES     N/A     80  68  66 W12       29.89F
LA MESA          N/A     75  65  71 NW2       29.84F
JAMUL            N/A     78  67  68 W2        29.89F
DESCANSO N       N/A     87  58  36 W6        29.75S
CAMPO            N/A     92  42  17 SW15      29.92F

$$

ORANGE COUNTY AND THE LOS ANGELES BASIN

CITY           SKY/WX    TMP DP  RH WIND       PRES   REMARKS
JOHN WAYNE AP  MOSUNNY   77  65  66 SW8       29.90F
LAKE FOREST FR   N/A     84  64  49 W3        29.80F
SANTA ANA        N/A     83  68  60 CALM      29.84F
HUNTINGTON BCH   N/A     77  68  74 S2        29.92F
LOS ALAMITOS   SUNNY     79  66  63 SW7       29.90F
FULLERTON      SUNNY     82  64  54 VRB3      29.88F
LONG BEACH     SUNNY     78  64  61 VRB7      29.90F
L.A. AP        MOSUNNY   76  65  68 W12       29.91F

$$

THE INLAND EMPIRE

CITY           SKY/WX    TMP DP  RH WIND       PRES   REMARKS
CORONA         SUNNY     85  64  49 W12       29.89F
CHINO          MOSUNNY   88  63  43 W12       29.90F
ONTARIO        MOSUNNY   87  61  41 SW10G16   29.90F
SAN BERNARDINO MOSUNNY   90  55  31 W8        29.90F HAZE
RIVERSIDE AP   SUNNY     88  63  43 W8G17     29.89F
MORENO VALLEY    N/A     91  65  42 W5        29.88F
MARCH ARB      SUNNY     89  60  37 W12       29.91F
HORSETHIEF CYN   N/A     87  59  37 N6        29.89F
PERRIS           N/A     91  58  32 NW7       29.93S
MENIFEE          N/A     94  58  29 SW2       29.95S
FRENCH VALLEY  FAIR      86  63  45 SW7       29.91F
TEMECULA         N/A     85  63  47 SW6       29.86F

$$

SAN BERNARDINO AND RIVERSIDE COUNTY MOUNTAINS

CITY           SKY/WX    TMP DP  RH WIND       PRES   REMARKS
BIG BEAR AP    SUNNY     75  43  31 W8        30.26F
ANGELUS OAKS     N/A     83  51  32 CALM      29.77F
PINE COVE        N/A     78  48  34 W1        29.85R

$$

SOUTHERN DESERT INCLUDING THE COACHELLA VALLEY

CITY           SKY/WX    TMP DP  RH WIND       PRES   REMARKS
PALM SPRINGS   MOSUNNY  110  46  11 E9        29.78F HX 105
THOUSAND PALMS   N/A    107  48  13 SE3       29.74F HX 104
THERMAL        SUNNY    110  51  14 SE9       29.70F HX 107
BLYTHE         SUNNY    106  54  17 CALM      29.76F HX 104
IMPERIAL AP    SUNNY    108  43  11 E7        29.73F HX 103
EL CENTRO NAS  SUNNY    108  44  11 SE7       29.74F HX 103
YUMA AZ        SUNNY    107  58  20 VRB5      29.76F HX 107
MEXICALI       SUNNY    106  46  13 S3        29.75F HX 102

$$

UPPER DESERT

CITY           SKY/WX    TMP DP  RH WIND       PRES   REMARKS
VICTORVILLE AP SUNNY     97  37  12 CALM      29.96F
HESPERIA         N/A     96  45  16 NW3       29.90F
APPLE VALLEY     N/A     96  40  14 SW12G17   29.98S
PALMDALE       SUNNY     96  42  15 VRB5      29.95F
LANCASTER      SUNNY     97  43  15 VRB7      29.93F
EDWARDS AFB    MOSUNNY   94  40  15 VRB3      29.91F
DAGGETT        SUNNY    100  37  11 W7        29.88F HX  95
29 PALMS N     SUNNY    101  45  15 MISG      29.95F HX  97
NEEDLES        SUNNY    104  51  17 VRB5      29.80F HX 101

$$

REGIONAL REPORTS

CITY           SKY/WX    TMP DP  RH WIND       PRES   REMARKS
SANTA BARBARA  SUNNY     76  63  64 S8        29.89F
SANDBERG       SUNNY     90  35  14 S13       30.12F
LAS VEGAS NV   MOSUNNY   97  50  20 VRB5      29.87F
PHOENIX AZ     MOSUNNY  103  54  19 W12       29.81F HX 101
TIJUANA        PTSUNNY   73  61  64 W7        29.94F
ENSENADA NW      N/A     73  32  22 W7        29.89F

$$

OFFSHORE ISLANDS

CITY           SKY/WX    TMP DP  RH WIND       PRES   REMARKS
CATALINA ARPT  SUNNY     73  61  65 W9        29.96F
SAN NICOLAS IS PTSUNNY  N/A N/A N/A NW22      29.94F

$$

MARINE AND OFFSHORE BUOY REPORTS

STATION/POSITION SKY/WX   TEMP    WIND        PRES    SWELL
                          AIR SEA DIR/SP/G            HT/PER/DIR
                          (F)     (DEG/KT/KT) (MB)    (FT/S/D)
TANNER BANKS               67 68  320/ 19/ 23 1013.9F   2/310/16
S CLEMENTE BASIN           67 70  280/ 12/ 14 1013.1F   3/300/ 7
SAN NICOLAS IS.               65                N/A     2/190/17
SO. S. ROSA ISLA           64 66  320/ 19/ 23 1012.9F   2/13
W. S. BARBARA CH           63 65  310/ 19/ 23 1012.8F   2/170/16
M. S. BARBARA CH           67 70  270/ 12/ 16 1013.5S
S. MONICA BASIN            69 73  270/  2/  4 1012.9F   2/200/14
S PEDRO CHANNEL               72                N/A     2/200/13
DANA POINT                    71                N/A     2/210/13
OCEANSIDE OFFSHR              72                N/A     2/210/14
TORREY PINES OTR              72                N/A     2/210/13
LA JOLLA 1                 70 68  280/  6/  7 1013.3F
MISSION BAY BUOY              72                N/A     2/200/17
SAN DIEGO BAY                 74              1014.0S
POINT LOMA SOUTH              73                N/A     2/190/15

$$




USA.gov is the U.S. government's official web portal to all federal, state and local government web resources and services.